| time (UTC) | temp F | wind direction | speed MPH | gust MPH | rain 1hr in | rain 24hr in | rain mn in | humidity % | barometer mb |
| 20260508201029 | 74 | 139 | 4.0 | 8.0 | 0.00 | 0.00 | 0.00 | 41 | 1012.6 |
| 20260508200529 | 74 | 121 | 4.0 | 11.0 | 0.00 | 0.00 | 0.00 | 43 | 1012.7 |
| 20260508200046 | 74 | 188 | 4.0 | 11.0 | 0.00 | 0.00 | 0.00 | 40 | 1012.7 |
| 20260508195529 | 75 | 241 | 3.0 | 8.0 | 0.00 | 0.00 | 0.00 | 40 | 1012.8 |
| 20260508195029 | 75 | 128 | 1.0 | 8.0 | 0.00 | 0.00 | 0.00 | 41 | 1012.9 |
| 20260508194612 | 75 | 221 | 3.0 | 8.0 | 0.00 | 0.00 | 0.00 | 40 | 1013.0 |
| 20260508194029 | 75 | 229 | 4.0 | 8.0 | 0.00 | 0.00 | 0.00 | 43 | 1013.1 |
| 20260508193529 | 74 | 73 | 0.0 | 11.0 | 0.00 | 0.00 | 0.00 | 45 | 1013.1 |
| 20260508193049 | 74 | 171 | 3.0 | 11.0 | 0.00 | 0.00 | 0.00 | 44 | 1013.2 |
| 20260508192529 | 74 | 176 | 4.0 | 11.0 | 0.00 | 0.00 | 0.00 | 45 | 1013.4 |
| 20260508192028 | 73 | 180 | 3.0 | 11.0 | 0.00 | 0.00 | 0.00 | 43 | 1013.3 |
| 20260508191552 | 73 | 192 | 5.0 | 11.0 | 0.00 | 0.00 | 0.00 | 45 | 1013.4 |
| 20260508191030 | 73 | 186 | 1.0 | 7.0 | 0.00 | 0.00 | 0.00 | 45 | 1013.5 |
| 20260508190529 | 73 | 171 | 3.0 | 8.0 | 0.00 | 0.00 | 0.00 | 44 | 1013.6 |
| 20260508190046 | 72 | 194 | 2.0 | 8.0 | 0.00 | 0.00 | 0.00 | 44 | 1013.7 |
| 20260508185530 | 72 | 0 | 2.0 | 11.0 | 0.00 | 0.00 | 0.00 | 45 | 1013.6 |
| 20260508185028 | 72 | 89 | 5.0 | 11.0 | 0.00 | 0.00 | 0.00 | 47 | 1013.7 |
| 20260508184547 | 73 | 118 | 2.0 | 10.0 | 0.00 | 0.00 | 0.00 | 42 | 1013.7 |
| 20260508184029 | 72 | 199 | 3.0 | 10.0 | 0.00 | 0.00 | 0.00 | 50 | 1013.8 |
| 20260508183529 | 72 | 86 | 5.0 | 10.0 | 0.00 | 0.00 | 0.00 | 44 | 1013.8 |
| 20260508183046 | 72 | 111 | 3.0 | 12.0 | 0.00 | 0.00 | 0.00 | 46 | 1013.9 |
| 20260508182530 | 71 | 80 | 5.0 | 12.0 | 0.00 | 0.00 | 0.00 | 40 | 1014.2 |
| 20260508182029 | 72 | 123 | 4.0 | 12.0 | 0.00 | 0.00 | 0.00 | 42 | 1014.4 |
| 20260508181606 | 72 | 285 | 4.0 | 8.0 | 0.00 | 0.00 | 0.00 | 43 | 1014.5 |
| 20260508181031 | 72 | 140 | 2.0 | 10.0 | 0.00 | 0.00 | 0.00 | 49 | 1014.5 |
| 20260508180529 | 72 | 142 | 4.0 | 10.0 | 0.00 | 0.00 | 0.00 | 45 | 1014.7 |
| 20260508180045 | 71 | 94 | 2.0 | 8.0 | 0.00 | 0.00 | 0.00 | 45 | 1014.7 |
| 20260508175529 | 71 | 183 | 4.0 | 11.0 | 0.00 | 0.00 | 0.00 | 48 | 1014.5 |
| 20260508175030 | 71 | 207 | 2.0 | 11.0 | 0.00 | 0.00 | 0.00 | 47 | 1014.7 |
| 20260508174548 | 71 | 221 | 5.0 | 10.0 | 0.00 | 0.00 | 0.00 | 46 | 1014.7 |
| 20260508174029 | 70 | 132 | 4.0 | 11.0 | 0.00 | 0.00 | 0.00 | 45 | 1014.7 |
| 20260508173530 | 70 | 134 | 3.0 | 11.0 | 0.00 | 0.00 | 0.00 | 44 | 1014.7 |
| 20260508173047 | 71 | 96 | 5.0 | 11.0 | 0.00 | 0.00 | 0.00 | 44 | 1014.9 |
| 20260508172528 | 70 | 180 | 3.0 | 9.0 | 0.00 | 0.00 | 0.00 | 45 | 1015.1 |
| 20260508172029 | 70 | 156 | 4.0 | 9.0 | 0.00 | 0.00 | 0.00 | 45 | 1015.3 |
| 20260508171545 | 70 | 177 | 4.0 | 11.0 | 0.00 | 0.00 | 0.00 | 47 | 1015.4 |
| 20260508171027 | 70 | 196 | 4.0 | 11.0 | 0.00 | 0.00 | 0.00 | 46 | 1015.5 |
| 20260508170529 | 70 | 150 | 3.0 | 11.0 | 0.00 | 0.00 | 0.00 | 44 | 1015.6 |
| 20260508170042 | 70 | 121 | 4.0 | 12.0 | 0.00 | 0.00 | 0.00 | 47 | 1015.6 |
| 20260508165530 | 70 | 153 | 3.0 | 12.0 | 0.00 | 0.00 | 0.00 | 48 | 1015.6 |
| 20260508165029 | 70 | 85 | 5.0 | 13.0 | 0.00 | 0.00 | 0.00 | 45 | 1015.8 |
| 20260508164541 | 70 | 172 | 4.0 | 13.0 | 0.00 | 0.00 | 0.00 | 46 | 1015.8 |
| 20260508164030 | 70 | 159 | 2.0 | 9.0 | 0.00 | 0.00 | 0.00 | 48 | 1015.9 |
| 20260508163528 | 70 | 101 | 3.0 | 9.0 | 0.00 | 0.00 | 0.00 | 44 | 1016.2 |
| 20260508163048 | 70 | 138 | 4.0 | 9.0 | 0.00 | 0.00 | 0.00 | 46 | 1016.2 |
| 20260508162529 | 69 | 131 | 3.0 | 9.0 | 0.00 | 0.00 | 0.00 | 47 | 1016.2 |
| 20260508162029 | 69 | 92 | 3.0 | 10.0 | 0.00 | 0.00 | 0.00 | 45 | 1016.2 |
| 20260508161601 | 69 | 167 | 3.0 | 10.0 | 0.00 | 0.00 | 0.00 | 47 | 1016.4 |
| 20260508161029 | 69 | 180 | 5.0 | 10.0 | 0.00 | 0.00 | 0.00 | 46 | 1016.5 |
| 20260508160530 | 69 | 270 | 4.0 | 11.0 | 0.00 | 0.00 | 0.00 | 49 | 1016.5 |
| 20260508160046 | 69 | 196 | 5.0 | 11.0 | 0.00 | 0.00 | 0.00 | 44 | 1016.7 |
| 20260508155533 | 69 | 171 | 3.0 | 10.0 | 0.00 | 0.00 | 0.00 | 47 | 1016.8 |
| 20260508155026 | 68 | 173 | 4.0 | 9.0 | 0.00 | 0.00 | 0.00 | 52 | 1016.8 |
| 20260508154545 | 68 | 130 | 3.0 | 10.0 | 0.00 | 0.00 | 0.00 | 48 | 1016.9 |
| 20260508154029 | 67 | 214 | 4.0 | 10.0 | 0.00 | 0.00 | 0.00 | 51 | 1016.7 |
| 20260508153530 | 67 | 134 | 5.0 | 10.0 | 0.00 | 0.00 | 0.00 | 50 | 1016.9 |
| 20260508153046 | 67 | 121 | 3.0 | 11.0 | 0.00 | 0.00 | 0.00 | 51 | 1016.9 |
| 20260508152529 | 67 | 103 | 4.0 | 11.0 | 0.00 | 0.00 | 0.00 | 51 | 1016.9 |
| 20260508152029 | 67 | 125 | 2.0 | 10.0 | 0.00 | 0.00 | 0.00 | 51 | 1016.9 |
| 20260508151540 | 67 | 157 | 4.0 | 10.0 | 0.00 | 0.00 | 0.00 | 54 | 1016.9 |
| 20260508151029 | 67 | 146 | 4.0 | 12.0 | 0.00 | 0.00 | 0.00 | 52 | 1017.1 |
| 20260508150528 | 67 | 178 | 3.0 | 12.0 | 0.00 | 0.00 | 0.00 | 52 | 1017.0 |
| 20260508150044 | 66 | 201 | 4.0 | 9.0 | 0.00 | 0.00 | 0.00 | 52 | 1017.2 |
| 20260508145530 | 66 | 200 | 4.0 | 11.0 | 0.00 | 0.00 | 0.00 | 56 | 1017.2 |
| 20260508145029 | 65 | 173 | 4.0 | 11.0 | 0.00 | 0.00 | 0.00 | 54 | 1017.1 |
| 20260508144546 | 65 | 184 | 4.0 | 9.0 | 0.00 | 0.00 | 0.00 | 53 | 1017.1 |
| 20260508144030 | 65 | 230 | 4.0 | 9.0 | 0.00 | 0.00 | 0.00 | 56 | 1017.2 |
| 20260508143530 | 65 | 113 | 5.0 | 10.0 | 0.00 | 0.00 | 0.00 | 56 | 1017.2 |
| 20260508143048 | 64 | 214 | 4.0 | 10.0 | 0.00 | 0.00 | 0.00 | 56 | 1017.2 |
| 20260508142529 | 64 | 126 | 4.0 | 10.0 | 0.00 | 0.00 | 0.00 | 57 | 1017.3 |
| 20260508142029 | 63 | 140 | 4.0 | 8.0 | 0.00 | 0.00 | 0.00 | 61 | 1017.2 |
| 20260508141541 | 63 | 198 | 3.0 | 10.0 | 0.00 | 0.00 | 0.00 | 60 | 1017.2 |
| 20260508141028 | 62 | 104 | 4.0 | 10.0 | 0.00 | 0.00 | 0.00 | 61 | 1017.3 |
| 20260508140533 | 62 | 175 | 4.0 | 9.0 | 0.00 | 0.00 | 0.00 | 63 | 1017.2 |
| 20260508140050 | 62 | 140 | 4.0 | 9.0 | 0.00 | 0.00 | 0.00 | 63 | 1017.3 |
| 20260508135532 | 61 | 126 | 3.0 | 9.0 | 0.00 | 0.00 | 0.00 | 66 | 1017.4 |
| 20260508135028 | 61 | 124 | 4.0 | 8.0 | 0.00 | 0.00 | 0.00 | 65 | 1017.5 |
| 20260508134556 | 61 | 141 | 4.0 | 8.0 | 0.00 | 0.00 | 0.00 | 65 | 1017.7 |
| 20260508134028 | 60 | 139 | 3.0 | 9.0 | 0.00 | 0.00 | 0.00 | 68 | 1017.7 |
| 20260508133528 | 60 | 133 | 3.0 | 9.0 | 0.00 | 0.00 | 0.00 | 68 | 1017.7 |
| 20260508133101 | 59 | 118 | 3.0 | 9.0 | 0.00 | 0.00 | 0.00 | 69 | 1017.8 |
| 20260508132527 | 59 | 123 | 2.0 | 7.0 | 0.00 | 0.00 | 0.00 | 72 | 1017.8 |
| 20260508132031 | 58 | 213 | 2.0 | 7.0 | 0.00 | 0.00 | 0.00 | 72 | 1017.8 |
| 20260508131548 | 58 | 124 | 3.0 | 7.0 | 0.00 | 0.00 | 0.00 | 71 | 1017.7 |
| 20260508131032 | 57 | 184 | 2.0 | 6.0 | 0.00 | 0.00 | 0.00 | 73 | 1017.7 |
| 20260508130530 | 57 | 141 | 2.0 | 6.0 | 0.00 | 0.00 | 0.00 | 74 | 1017.7 |
| 20260508130043 | 56 | 177 | 2.0 | 5.0 | 0.00 | 0.00 | 0.00 | 75 | 1017.8 |
| 20260508125528 | 55 | 124 | 3.0 | 6.0 | 0.00 | 0.00 | 0.00 | 77 | 1017.7 |
| 20260508125028 | 54 | 198 | 2.0 | 7.0 | 0.00 | 0.00 | 0.00 | 79 | 1017.7 |
| 20260508124542 | 54 | 178 | 3.0 | 7.0 | 0.00 | 0.00 | 0.00 | 79 | 1017.6 |
| 20260508124030 | 53 | 180 | 3.0 | 7.0 | 0.00 | 0.00 | 0.00 | 80 | 1017.7 |
| 20260508123529 | 52 | 193 | 1.0 | 5.0 | 0.00 | 0.00 | 0.00 | 82 | 1017.6 |
| 20260508123055 | 51 | 148 | 2.0 | 4.0 | 0.00 | 0.00 | 0.00 | 83 | 1017.6 |
| 20260508122529 | 50 | 0 | 1.0 | 4.0 | 0.00 | 0.00 | 0.00 | 86 | 1017.4 |
| 20260508122027 | 49 | 140 | 0.0 | 3.0 | 0.00 | 0.00 | 0.00 | 89 | 1017.4 |
| 20260508121552 | 48 | 0 | 0.0 | 0.0 | 0.00 | 0.00 | 0.00 | 92 | 1017.3 |
| 20260508121027 | 48 | 0 | 0.0 | 0.0 | 0.00 | 0.00 | 0.00 | 94 | 1017.3 |
| 20260508120527 | 47 | 0 | 0.0 | 0.0 | 0.00 | 0.00 | 0.00 | 96 | 1017.3 |
| 20260508120047 | 46 | 0 | 0.0 | 0.0 | 0.00 | 0.00 | 0.00 | 98 | 1017.4 |
| 20260508115530 | 45 | 0 | 0.0 | 0.0 | 0.00 | 0.00 | 0.00 | 98 | 1017.2 |
| 20260508115029 | 45 | 0 | 0.0 | 0.0 | 0.00 | 0.00 | 0.00 | 98 | 1017.2 |
| 20260508114543 | 44 | 0 | 0.0 | 0.0 | 0.00 | 0.00 | 0.00 | 98 | 1017.0 |
| 20260508114030 | 44 | 0 | 0.0 | 0.0 | 0.00 | 0.00 | 0.00 | 98 | 1017.0 |
| 20260508113529 | 42 | 0 | 0.0 | 0.0 | 0.00 | 0.00 | 0.00 | 98 | 1016.9 |
| 20260508113044 | 41 | 0 | 0.0 | 0.0 | 0.00 | 0.00 | 0.00 | 97 | 1017.0 |
| 20260508112527 | 40 | 0 | 0.0 | 0.0 | 0.00 | 0.00 | 0.00 | 97 | 1016.7 |
| 20260508112027 | 39 | 0 | 0.0 | 0.0 | 0.00 | 0.00 | 0.00 | 97 | 1016.6 |
| 20260508111553 | 39 | 0 | 0.0 | 0.0 | 0.00 | 0.00 | 0.00 | 96 | 1016.6 |
| 20260508111028 | 39 | 0 | 0.0 | 0.0 | 0.00 | 0.00 | 0.00 | 96 | 1016.7 |
| 20260508110527 | 39 | 0 | 0.0 | 0.0 | 0.00 | 0.00 | 0.00 | 96 | 1016.6 |
| 20260508110049 | 39 | 0 | 0.0 | 0.0 | 0.00 | 0.00 | 0.00 | 96 | 1016.6 |
| 20260508105529 | 39 | 0 | 0.0 | 0.0 | 0.00 | 0.00 | 0.00 | 96 | 1016.5 |
| 20260508105030 | 39 | 0 | 0.0 | 0.0 | 0.00 | 0.00 | 0.00 | 96 | 1016.4 |
| 20260508104546 | 39 | 0 | 0.0 | 0.0 | 0.00 | 0.00 | 0.00 | 96 | 1016.5 |
| 20260508104029 | 39 | 0 | 0.0 | 0.0 | 0.00 | 0.00 | 0.00 | 96 | 1016.4 |
| 20260508103527 | 39 | 0 | 0.0 | 0.0 | 0.00 | 0.00 | 0.00 | 96 | 1016.4 |
| 20260508103041 | 39 | 0 | 0.0 | 0.0 | 0.00 | 0.00 | 0.00 | 96 | 1016.3 |
| 20260508102529 | 39 | 0 | 0.0 | 0.0 | 0.00 | 0.00 | 0.00 | 96 | 1016.3 |
| 20260508102029 | 39 | 0 | 0.0 | 0.0 | 0.00 | 0.00 | 0.00 | 95 | 1016.3 |
| 20260508101541 | 39 | 0 | 0.0 | 0.0 | 0.00 | 0.00 | 0.00 | 96 | 1016.3 |
| 20260508101029 | 39 | 0 | 0.0 | 0.0 | 0.00 | 0.00 | 0.00 | 96 | 1016.3 |
| 20260508100528 | 39 | 0 | 0.0 | 0.0 | 0.00 | 0.00 | 0.00 | 95 | 1016.2 |
| 20260508100048 | 39 | 0 | 0.0 | 0.0 | 0.00 | 0.00 | 0.00 | 95 | 1016.2 |
| 20260508095529 | 40 | 0 | 0.0 | 0.0 | 0.00 | 0.01 | 0.00 | 95 | 1016.1 |
| 20260508095028 | 40 | 0 | 0.0 | 0.0 | 0.00 | 0.01 | 0.00 | 95 | 1016.0 |
| 20260508094554 | 40 | 0 | 0.0 | 0.0 | 0.00 | 0.01 | 0.00 | 96 | 1016.1 |
| 20260508094029 | 40 | 0 | 0.0 | 0.0 | 0.00 | 0.01 | 0.00 | 96 | 1016.1 |
| 20260508093529 | 40 | 0 | 0.0 | 0.0 | 0.00 | 0.01 | 0.00 | 96 | 1016.0 |
| 20260508093044 | 40 | 0 | 0.0 | 0.0 | 0.00 | 0.01 | 0.00 | 96 | 1016.1 |
| 20260508092528 | 40 | 0 | 0.0 | 0.0 | 0.00 | 0.01 | 0.00 | 95 | 1016.2 |
| 20260508092029 | 40 | 0 | 0.0 | 0.0 | 0.00 | 0.01 | 0.00 | 95 | 1016.1 |
| 20260508091545 | 40 | 0 | 0.0 | 0.0 | 0.00 | 0.01 | 0.00 | 96 | 1016.0 |
| 20260508091029 | 40 | 0 | 0.0 | 0.0 | 0.00 | 0.01 | 0.00 | 95 | 1016.0 |
| 20260508090529 | 40 | 0 | 0.0 | 0.0 | 0.00 | 0.01 | 0.00 | 95 | 1016.1 |
| 20260508090044 | 40 | 0 | 0.0 | 0.0 | 0.00 | 0.01 | 0.00 | 95 | 1016.0 |
| 20260508085530 | 40 | 0 | 0.0 | 0.0 | 0.00 | 0.01 | 0.00 | 95 | 1016.1 |
| 20260508085028 | 40 | 0 | 0.0 | 0.0 | 0.00 | 0.01 | 0.00 | 95 | 1016.1 |
| 20260508084549 | 41 | 0 | 0.0 | 0.0 | 0.00 | 0.01 | 0.00 | 95 | 1016.0 |
| 20260508084028 | 41 | 0 | 0.0 | 0.0 | 0.00 | 0.01 | 0.00 | 95 | 1016.0 |
| 20260508083529 | 41 | 0 | 0.0 | 0.0 | 0.00 | 0.01 | 0.00 | 95 | 1016.1 |
| 20260508083047 | 41 | 0 | 0.0 | 0.0 | 0.00 | 0.01 | 0.00 | 95 | 1016.2 |
| 20260508082531 | 41 | 0 | 0.0 | 0.0 | 0.00 | 0.01 | 0.00 | 95 | 1016.2 |
| 20260508082028 | 41 | 0 | 0.0 | 0.0 | 0.00 | 0.01 | 0.00 | 95 | 1016.1 |
| 20260508081603 | 41 | 0 | 0.0 | 0.0 | 0.00 | 0.01 | 0.00 | 95 | 1016.2 |
| 20260508081029 | 41 | 0 | 0.0 | 0.0 | 0.00 | 0.01 | 0.00 | 95 | 1016.2 |
| 20260508080529 | 41 | 0 | 0.0 | 0.0 | 0.00 | 0.01 | 0.00 | 95 | 1016.3 |
| 20260508080040 | 42 | 0 | 0.0 | 0.0 | 0.00 | 0.01 | 0.00 | 95 | 1016.3 |
| 20260508075529 | 42 | 0 | 0.0 | 0.0 | 0.00 | 0.01 | 0.00 | 95 | 1016.4 |
| 20260508075029 | 42 | 0 | 0.0 | 0.0 | 0.00 | 0.01 | 0.00 | 95 | 1016.3 |
| 20260508074549 | 42 | 0 | 0.0 | 0.0 | 0.00 | 0.01 | 0.00 | 95 | 1016.4 |
| 20260508074030 | 42 | 0 | 0.0 | 0.0 | 0.00 | 0.01 | 0.00 | 95 | 1016.5 |
| 20260508073532 | 42 | 0 | 0.0 | 0.0 | 0.00 | 0.01 | 0.00 | 95 | 1016.5 |
| 20260508073048 | 42 | 0 | 0.0 | 0.0 | 0.00 | 0.01 | 0.00 | 95 | 1016.6 |
| 20260508072531 | 42 | 0 | 0.0 | 0.0 | 0.00 | 0.01 | 0.00 | 95 | 1016.5 |
| 20260508072030 | 42 | 0 | 0.0 | 0.0 | 0.00 | 0.01 | 0.00 | 95 | 1016.6 |
| 20260508071549 | 42 | 0 | 0.0 | 0.0 | 0.00 | 0.01 | 0.00 | 95 | 1016.6 |
| 20260508071027 | 42 | 0 | 0.0 | 0.0 | 0.00 | 0.01 | 0.00 | 95 | 1016.7 |
| 20260508070530 | 42 | 0 | 0.0 | 0.0 | 0.00 | 0.01 | 0.00 | 95 | 1016.7 |
| 20260508070046 | 42 | 0 | 0.0 | 0.0 | 0.00 | 0.01 | 0.00 | 95 | 1016.7 |
| 20260508065533 | 42 | 0 | 0.0 | 0.0 | 0.00 | 0.01 | 0.00 | 94 | 1016.6 |
| 20260508065029 | 42 | 0 | 0.0 | 0.0 | 0.00 | 0.01 | 0.00 | 94 | 1016.6 |
| 20260508064541 | 42 | 0 | 0.0 | 0.0 | 0.00 | 0.01 | 0.00 | 94 | 1016.6 |
| 20260508064027 | 42 | 0 | 0.0 | 0.0 | 0.00 | 0.01 | 0.00 | 94 | 1016.6 |
| 20260508063527 | 42 | 0 | 0.0 | 0.0 | 0.00 | 0.01 | 0.00 | 94 | 1016.7 |
| 20260508063046 | 42 | 0 | 0.0 | 0.0 | 0.00 | 0.01 | 0.00 | 94 | 1016.9 |
| 20260508062532 | 43 | 0 | 0.0 | 0.0 | 0.00 | 0.01 | 0.00 | 94 | 1016.7 |
| 20260508062031 | 43 | 0 | 0.0 | 0.0 | 0.00 | 0.01 | 0.00 | 94 | 1016.7 |
| 20260508061545 | 43 | 0 | 0.0 | 0.0 | 0.00 | 0.01 | 0.00 | 94 | 1016.8 |
| 20260508061031 | 43 | 0 | 0.0 | 0.0 | 0.00 | 0.01 | 0.00 | 94 | 1017.0 |
| 20260508060528 | 43 | 0 | 0.0 | 0.0 | 0.00 | 0.01 | 0.00 | 94 | 1016.8 |
| 20260508060047 | 43 | 0 | 0.0 | 0.0 | 0.00 | 0.01 | 0.00 | 94 | 1016.7 |
| 20260508055530 | 43 | 0 | 0.0 | 0.0 | 0.00 | 0.01 | 0.00 | 94 | 1016.7 |
| 20260508055030 | 43 | 0 | 0.0 | 0.0 | 0.00 | 0.01 | 0.00 | 93 | 1016.7 |
| 20260508054545 | 43 | 0 | 0.0 | 0.0 | 0.00 | 0.01 | 0.00 | 93 | 1016.7 |
| 20260508054030 | 43 | 0 | 0.0 | 0.0 | 0.00 | 0.01 | 0.00 | 93 | 1016.9 |
| 20260508053530 | 43 | 0 | 0.0 | 0.0 | 0.00 | 0.01 | 0.00 | 94 | 1016.8 |
| 20260508053041 | 43 | 0 | 0.0 | 0.0 | 0.00 | 0.01 | 0.00 | 94 | 1017.0 |
| 20260508052532 | 43 | 0 | 0.0 | 0.0 | 0.00 | 0.01 | 0.00 | 93 | 1016.7 |
| 20260508052029 | 43 | 0 | 0.0 | 0.0 | 0.00 | 0.01 | 0.00 | 93 | 1016.7 |
| 20260508051542 | 43 | 0 | 0.0 | 0.0 | 0.00 | 0.01 | 0.00 | 93 | 1016.7 |
| 20260508051031 | 44 | 0 | 0.0 | 0.0 | 0.00 | 0.01 | 0.00 | 93 | 1016.6 |
| 20260508050530 | 44 | 0 | 0.0 | 0.0 | 0.00 | 0.01 | 0.00 | 92 | 1016.6 |
| 20260508050047 | 44 | 0 | 0.0 | 0.0 | 0.00 | 0.01 | 0.00 | 92 | 1016.7 |
| 20260508045528 | 44 | 0 | 0.0 | 0.0 | 0.00 | 0.01 | 0.01 | 92 | 1016.8 |
| 20260508045030 | 44 | 0 | 0.0 | 0.0 | 0.00 | 0.01 | 0.01 | 93 | 1016.8 |
| 20260508044601 | 44 | 0 | 0.0 | 0.0 | 0.00 | 0.01 | 0.01 | 93 | 1016.8 |
| 20260508044031 | 44 | 0 | 0.0 | 0.0 | 0.00 | 0.01 | 0.01 | 92 | 1016.8 |
| 20260508043530 | 44 | 0 | 0.0 | 0.0 | 0.00 | 0.01 | 0.01 | 92 | 1016.9 |
| 20260508043046 | 44 | 0 | 0.0 | 0.0 | 0.00 | 0.01 | 0.01 | 92 | 1016.8 |
| 20260508042530 | 45 | 0 | 0.0 | 0.0 | 0.00 | 0.01 | 0.01 | 92 | 1017.0 |
| 20260508042030 | 45 | 0 | 0.0 | 0.0 | 0.00 | 0.01 | 0.01 | 92 | 1017.0 |
| 20260508041541 | 45 | 0 | 0.0 | 0.0 | 0.00 | 0.01 | 0.01 | 92 | 1017.0 |
| 20260508041029 | 45 | 0 | 0.0 | 0.0 | 0.00 | 0.01 | 0.01 | 91 | 1017.1 |
| 20260508040527 | 45 | 0 | 0.0 | 0.0 | 0.00 | 0.01 | 0.01 | 91 | 1017.1 |
| 20260508040056 | 45 | 0 | 0.0 | 0.0 | 0.00 | 0.01 | 0.01 | 91 | 1016.9 |
| 20260508035529 | 45 | 0 | 0.0 | 0.0 | 0.00 | 0.01 | 0.01 | 91 | 1017.1 |
| 20260508035030 | 45 | 0 | 0.0 | 0.0 | 0.00 | 0.01 | 0.01 | 91 | 1016.9 |
| 20260508034553 | 45 | 0 | 0.0 | 0.0 | 0.00 | 0.01 | 0.01 | 90 | 1017.0 |
| 20260508034029 | 45 | 0 | 0.0 | 0.0 | 0.00 | 0.01 | 0.01 | 90 | 1017.0 |
| 20260508033534 | 46 | 0 | 0.0 | 0.0 | 0.00 | 0.01 | 0.01 | 89 | 1017.0 |
| 20260508033047 | 46 | 0 | 0.0 | 0.0 | 0.00 | 0.01 | 0.01 | 89 | 1017.0 |
| 20260508032528 | 46 | 0 | 0.0 | 0.0 | 0.00 | 0.01 | 0.01 | 89 | 1016.9 |
| 20260508032031 | 46 | 0 | 0.0 | 0.0 | 0.00 | 0.01 | 0.01 | 88 | 1016.8 |
| 20260508031546 | 46 | 0 | 0.0 | 0.0 | 0.00 | 0.01 | 0.01 | 88 | 1016.8 |
| 20260508031027 | 47 | 0 | 0.0 | 0.0 | 0.00 | 0.01 | 0.01 | 88 | 1016.7 |
| 20260508030527 | 47 | 0 | 0.0 | 0.0 | 0.00 | 0.01 | 0.01 | 88 | 1016.7 |
| 20260508030059 | 47 | 0 | 0.0 | 0.0 | 0.00 | 0.01 | 0.01 | 88 | 1016.6 |
| 20260508025530 | 47 | 0 | 0.0 | 0.0 | 0.00 | 0.01 | 0.01 | 88 | 1016.7 |
| 20260508025030 | 47 | 0 | 0.0 | 0.0 | 0.00 | 0.01 | 0.01 | 88 | 1016.5 |
| 20260508024548 | 48 | 0 | 0.0 | 0.0 | 0.00 | 0.01 | 0.01 | 87 | 1016.5 |
| 20260508024027 | 48 | 0 | 0.0 | 0.0 | 0.00 | 0.01 | 0.01 | 86 | 1016.5 |
| 20260508023530 | 48 | 0 | 0.0 | 0.0 | 0.00 | 0.01 | 0.01 | 86 | 1016.4 |
| 20260508023048 | 48 | 0 | 0.0 | 0.0 | 0.00 | 0.01 | 0.01 | 86 | 1016.4 |
| 20260508022531 | 48 | 0 | 0.0 | 0.0 | 0.00 | 0.01 | 0.01 | 85 | 1016.3 |
| 20260508022031 | 49 | 0 | 0.0 | 0.0 | 0.00 | 0.01 | 0.01 | 85 | 1016.4 |
| 20260508021547 | 49 | 0 | 0.0 | 0.0 | 0.00 | 0.01 | 0.01 | 83 | 1016.5 |
| 20260508021029 | 49 | 0 | 0.0 | 0.0 | 0.00 | 0.01 | 0.01 | 84 | 1016.4 |
| 20260508020530 | 49 | 0 | 0.0 | 0.0 | 0.00 | 0.01 | 0.01 | 83 | 1016.4 |
| 20260508020048 | 50 | 0 | 0.0 | 0.0 | 0.00 | 0.01 | 0.01 | 83 | 1016.4 |
| 20260508015530 | 50 | 0 | 0.0 | 0.0 | 0.00 | 0.02 | 0.01 | 82 | 1016.4 |
| 20260508015030 | 50 | 0 | 0.0 | 0.0 | 0.00 | 0.02 | 0.01 | 81 | 1016.1 |
| 20260508014548 | 50 | 0 | 0.0 | 0.0 | 0.00 | 0.02 | 0.01 | 80 | 1016.2 |
| 20260508014032 | 51 | 0 | 0.0 | 0.0 | 0.00 | 0.02 | 0.01 | 79 | 1016.3 |
| 20260508013530 | 51 | 0 | 0.0 | 0.0 | 0.00 | 0.02 | 0.01 | 78 | 1016.1 |
| 20260508013045 | 51 | 0 | 0.0 | 0.0 | 0.00 | 0.02 | 0.01 | 77 | 1016.1 |
| 20260508012530 | 52 | 0 | 0.0 | 0.0 | 0.00 | 0.02 | 0.01 | 76 | 1016.0 |
| 20260508012029 | 52 | 0 | 0.0 | 0.0 | 0.00 | 0.02 | 0.01 | 76 | 1016.0 |
| 20260508011544 | 53 | 0 | 0.0 | 0.0 | 0.00 | 0.02 | 0.01 | 75 | 1015.9 |
| 20260508011030 | 53 | 0 | 0.0 | 0.0 | 0.00 | 0.02 | 0.01 | 74 | 1015.8 |
| 20260508010530 | 54 | 0 | 0.0 | 0.0 | 0.00 | 0.02 | 0.01 | 73 | 1015.7 |
| 20260508010045 | 54 | 0 | 0.0 | 0.0 | 0.00 | 0.02 | 0.01 | 72 | 1015.8 |
| 20260508005532 | 55 | 0 | 0.0 | 0.0 | 0.00 | 0.02 | 0.01 | 71 | 1015.7 |
| 20260508005026 | 56 | 0 | 0.0 | 0.0 | 0.00 | 0.02 | 0.01 | 70 | 1015.6 |
| 20260508004552 | 56 | 0 | 0.0 | 0.0 | 0.00 | 0.02 | 0.01 | 69 | 1015.6 |
| 20260508004031 | 57 | 0 | 0.0 | 0.0 | 0.00 | 0.02 | 0.01 | 67 | 1015.5 |
| 20260508003530 | 57 | 0 | 0.0 | 0.0 | 0.00 | 0.02 | 0.01 | 67 | 1015.4 |
| 20260508003048 | 58 | 0 | 0.0 | 0.0 | 0.00 | 0.02 | 0.01 | 62 | 1015.5 |
| 20260508002532 | 58 | 0 | 0.0 | 1.0 | 0.00 | 0.02 | 0.01 | 62 | 1015.5 |
| 20260508002031 | 59 | 0 | 0.0 | 1.0 | 0.00 | 0.02 | 0.01 | 61 | 1015.4 |
| 20260508001547 | 59 | 0 | 0.0 | 0.0 | 0.00 | 0.02 | 0.01 | 58 | 1015.4 |
| 20260508001030 | 59 | 0 | 0.0 | 1.0 | 0.00 | 0.02 | 0.01 | 56 | 1015.4 |
| 20260508000533 | 60 | 0 | 0.0 | 1.0 | 0.00 | 0.02 | 0.01 | 55 | 1015.4 |
| 20260508000043 | 60 | 0 | 0.0 | 2.0 | 0.00 | 0.02 | 0.01 | 55 | 1015.3 |
| 20260507235530 | 60 | 0 | 0.0 | 3.0 | 0.00 | 0.06 | 0.01 | 54 | 1015.3 |
| 20260507235030 | 60 | 329 | 0.0 | 3.0 | 0.00 | 0.06 | 0.01 | 54 | 1015.3 |
| 20260507234544 | 61 | 339 | 0.0 | 3.0 | 0.00 | 0.06 | 0.01 | 53 | 1015.2 |
| 20260507234028 | 61 | 319 | 0.0 | 3.0 | 0.00 | 0.06 | 0.01 | 53 | 1015.1 |
| 20260507233529 | 61 | 309 | 0.0 | 3.0 | 0.00 | 0.06 | 0.01 | 52 | 1015.1 |
| 20260507233048 | 61 | 306 | 1.0 | 3.0 | 0.00 | 0.06 | 0.01 | 52 | 1015.2 |
| 20260507232527 | 61 | 0 | 0.0 | 3.0 | 0.00 | 0.06 | 0.01 | 53 | 1015.1 |
| 20260507232026 | 62 | 327 | 0.0 | 4.0 | 0.00 | 0.06 | 0.01 | 51 | 1015.2 |
| 20260507231552 | 62 | 336 | 0.0 | 4.0 | 0.00 | 0.06 | 0.01 | 53 | 1015.2 |
| 20260507231030 | 62 | 355 | 0.0 | 3.0 | 0.00 | 0.06 | 0.01 | 52 | 1015.2 |
| 20260507230526 | 62 | 0 | 1.0 | 3.0 | 0.00 | 0.06 | 0.01 | 52 | 1015.2 |
| 20260507230051 | 62 | 346 | 1.0 | 3.0 | 0.00 | 0.06 | 0.01 | 52 | 1015.3 |
| 20260507225528 | 62 | 336 | 0.0 | 4.0 | 0.00 | 0.10 | 0.01 | 53 | 1015.2 |
| 20260507225029 | 63 | 340 | 1.0 | 5.0 | 0.00 | 0.10 | 0.01 | 51 | 1015.2 |
| 20260507224550 | 63 | 306 | 2.0 | 5.0 | 0.00 | 0.10 | 0.01 | 51 | 1015.2 |
| 20260507224026 | 63 | 12 | 2.0 | 5.0 | 0.00 | 0.10 | 0.01 | 49 | 1015.3 |
| 20260507223526 | 63 | 302 | 0.0 | 5.0 | 0.00 | 0.10 | 0.01 | 48 | 1015.3 |
| 20260507223049 | 64 | 0 | 1.0 | 5.0 | 0.00 | 0.10 | 0.01 | 48 | 1015.2 |
| 20260507222527 | 64 | 339 | 1.0 | 4.0 | 0.00 | 0.10 | 0.01 | 49 | 1015.3 |
| 20260507222027 | 64 | 294 | 0.0 | 3.0 | 0.00 | 0.10 | 0.01 | 46 | 1015.2 |
| 20260507221541 | 64 | 308 | 0.0 | 3.0 | 0.00 | 0.10 | 0.01 | 48 | 1015.3 |
| 20260507221026 | 64 | 225 | 0.0 | 3.0 | 0.00 | 0.10 | 0.01 | 49 | 1015.3 |
| 20260507220526 | 65 | 0 | 0.0 | 7.0 | 0.00 | 0.10 | 0.01 | 48 | 1015.2 |
| 20260507220040 | 65 | 213 | 2.0 | 7.0 | 0.00 | 0.10 | 0.01 | 49 | 1015.3 |
| 20260507215527 | 65 | 0 | 1.0 | 6.0 | 0.00 | 0.10 | 0.01 | 51 | 1015.3 |
| 20260507215027 | 65 | 350 | 2.0 | 6.0 | 0.00 | 0.10 | 0.01 | 48 | 1015.2 |
| 20260507214546 | 65 | 351 | 1.0 | 10.0 | 0.00 | 0.10 | 0.01 | 50 | 1015.2 |
| 20260507214026 | 65 | 234 | 1.0 | 10.0 | 0.00 | 0.10 | 0.01 | 52 | 1015.3 |
| 20260507213529 | 66 | 340 | 2.0 | 9.0 | 0.00 | 0.10 | 0.01 | 48 | 1015.1 |
| 20260507213046 | 66 | 15 | 2.0 | 5.0 | 0.00 | 0.10 | 0.01 | 50 | 1015.1 |
| 20260507212526 | 67 | 313 | 1.0 | 5.0 | 0.00 | 0.10 | 0.01 | 48 | 1015.1 |
| 20260507212026 | 66 | 239 | 1.0 | 6.0 | 0.00 | 0.10 | 0.01 | 52 | 1015.1 |
| 20260507211545 | 66 | 288 | 1.0 | 6.0 | 0.00 | 0.10 | 0.01 | 47 | 1015.1 |
| 20260507211026 | 66 | 319 | 2.0 | 8.0 | 0.00 | 0.10 | 0.01 | 51 | 1015.1 |
| 20260507210529 | 66 | 307 | 3.0 | 8.0 | 0.00 | 0.10 | 0.01 | 47 | 1015.0 |
| 20260507210042 | 67 | 342 | 1.0 | 5.0 | 0.00 | 0.10 | 0.01 | 50 | 1015.0 |
| 20260507205526 | 67 | 0 | 1.0 | 6.0 | 0.00 | 0.10 | 0.01 | 46 | 1014.9 |
| 20260507205026 | 66 | 223 | 2.0 | 6.0 | 0.00 | 0.10 | 0.01 | 52 | 1014.9 |
| 20260507204540 | 66 | 278 | 1.0 | 5.0 | 0.00 | 0.10 | 0.01 | 51 | 1015.0 |
| 20260507204027 | 65 | 329 | 1.0 | 5.0 | 0.00 | 0.10 | 0.01 | 54 | 1015.1 |
| 20260507203527 | 65 | 322 | 2.0 | 5.0 | 0.00 | 0.10 | 0.01 | 52 | 1015.1 |
| 20260507203057 | 65 | 342 | 2.0 | 5.0 | 0.00 | 0.10 | 0.01 | 47 | 1015.0 |
| 20260507202526 | 65 | 319 | 1.0 | 3.0 | 0.00 | 0.10 | 0.01 | 46 | 1015.1 |
| 20260507202026 | 66 | 336 | 1.0 | 7.0 | 0.00 | 0.10 | 0.01 | 48 | 1015.2 |
| 20260507201548 | 66 | 294 | 2.0 | 7.0 | 0.00 | 0.10 | 0.01 | 49 | 1015.1 |